Latest Coastal Weather Observations for Spring Bay

IDT60701

Issued at 6:22 pm EDT Sunday 26 March 2017 (issued every 10 minutes, with the page automatically refreshed every 10 minutes)

About coastal observations | Map of coastal stations | Coastal observations for TAS | Marine services | Other Formats
Station Details ID: 092133 Name: SPRING BAY NTC AWS Lat: -42.55 Lon: 147.93 Height: 0.0 m
Data from the previous 72 hours. | See also: Recent months for locations in Tasmania
Date/Time
EDT
Temp
°C
Wind Pressure Rain since
9am
mm
Weather Cloud Vis
km
Sea
Height
m
Swell
Dir  Spd
kts
Gust
kts
hPa Trend Height
m
Period
s
Dir
26/06:00pm 18.0 - - - 1013.8 - - - - - - - - -
26/05:30pm 18.3 - - - 1013.9 - - - - - - - - -
26/05:00pm 18.4 - - - 1013.9 - - - - - - - - -
26/04:30pm 18.7 - - - 1013.9 - - - - - - - - -
26/04:00pm 19.1 - - - 1014.1 - - - - - - - - -
26/03:30pm 19.3 - - - 1014.1 - - - - - - - - -
26/03:00pm 18.9 - - - 1014.2 - - - - - - - - -
26/02:30pm 19.8 - - - 1014.5 - - - - - - - - -
26/02:00pm 19.9 - - - 1014.7 - - - - - - - - -
26/01:30pm 19.5 - - - 1015.0 - - - - - - - - -
26/01:00pm 20.5 - - - 1015.2 - - - - - - - - -
26/12:30pm 20.4 - - - 1015.4 - - - - - - - - -
26/12:00pm 19.1 - - - 1015.7 - - - - - - - - -
26/11:30am 17.8 - - - 1015.9 - - - - - - - - -
26/11:00am 17.0 - - - 1015.8 - - - - - - - - -
26/10:30am 18.3 - - - 1015.6 - - - - - - - - -
26/10:00am 16.9 - - - 1015.7 - - - - - - - - -
26/09:30am 16.3 - - - 1015.3 - - - - - - - - -
26/09:00am 15.6 - - - 1015.2 - - - - - - - - -
26/08:30am 13.8 - - - 1014.9 - - - - - - - - -
26/08:00am 12.8 - - - 1014.7 - - - - - - - - -
26/07:30am 13.0 - - - 1014.2 - - - - - - - - -
26/07:00am 13.3 - - - 1013.8 - - - - - - - - -
26/06:30am 13.2 - - - 1013.6 - - - - - - - - -
26/06:00am 13.6 - - - 1013.5 - - - - - - - - -
26/05:30am 14.0 - - - 1013.5 - - - - - - - - -
26/05:00am 14.3 - - - 1013.3 - - - - - - - - -
26/04:30am 14.4 - - - 1013.4 - - - - - - - - -
26/04:00am 14.2 - - - 1013.5 - - - - - - - - -
26/03:30am 13.9 - - - 1013.3 - - - - - - - - -
26/03:00am 14.1 - - - 1013.5 - - - - - - - - -
26/02:30am 14.1 - - - 1013.5 - - - - - - - - -
26/02:00am 13.9 - - - 1013.6 - - - - - - - - -
26/01:30am 14.1 - - - 1013.5 - - - - - - - - -
26/01:00am 14.3 - - - 1013.5 - - - - - - - - -
26/12:30am 14.6 - - - 1013.5 - - - - - - - - -
26/12:00am 14.8 - - - 1013.7 - - - - - - - - -
 
Date/Time
EDT
Temp
°C
Wind Pressure Rain since
9am
mm
Weather Cloud Vis
km
Sea
Height
m
Swell
Dir  Spd
kts
Gust
kts
hPa Trend Height
m
Period
s
Dir
25/11:30pm 15.4 - - - 1013.7 - - - - - - - - -
25/11:00pm 15.3 - - - 1013.5 - - - - - - - - -
25/10:30pm 15.8 - - - 1013.4 - - - - - - - - -
25/10:00pm 16.2 - - - 1013.3 - - - - - - - - -
25/09:30pm 16.4 - - - 1013.1 - - - - - - - - -
25/09:00pm 16.7 - - - 1012.8 - - - - - - - - -
25/08:30pm 17.4 - - - 1012.7 - - - - - - - - -
25/08:00pm 17.6 - - - 1012.8 - - - - - - - - -
25/07:30pm 17.8 - - - 1012.5 - - - - - - - - -
25/07:00pm 18.1 - - - 1012.4 - - - - - - - - -
25/06:30pm 18.3 - - - 1012.2 - - - - - - - - -
25/06:00pm 18.3 - - - 1012.0 - - - - - - - - -
25/05:30pm 18.5 - - - 1011.9 - - - - - - - - -
25/05:00pm 18.4 - - - 1012.1 - - - - - - - - -
25/04:30pm 18.3 - - - 1012.3 - - - - - - - - -
25/04:00pm 18.3 - - - 1012.3 - - - - - - - - -
25/03:30pm 18.4 - - - 1012.5 - - - - - - - - -
25/03:00pm 18.8 - - - 1012.5 - - - - - - - - -
25/02:30pm 18.6 - - - 1012.8 - - - - - - - - -
25/02:00pm 18.3 - - - 1013.2 - - - - - - - - -
25/01:30pm 18.0 - - - 1013.6 - - - - - - - - -
25/01:00pm 17.7 - - - 1014.0 - - - - - - - - -
25/12:30pm 17.4 - - - 1014.3 - - - - - - - - -
25/12:00pm 17.2 - - - 1014.8 - - - - - - - - -
25/11:30am 16.8 - - - 1015.2 - - - - - - - - -
25/11:00am 16.6 - - - 1015.4 - - - - - - - - -
25/10:30am 15.4 - - - 1015.3 - - - - - - - - -
25/10:00am 14.9 - - - 1015.5 - - - - - - - - -
25/09:30am 14.4 - - - 1015.6 - - - - - - - - -
25/09:00am 13.9 - - - 1015.5 - - - - - - - - -
25/08:30am 13.6 - - - 1015.6 - - - - - - - - -
25/08:00am 13.8 - - - 1015.6 - - - - - - - - -
25/07:30am 13.1 - - - 1015.8 - - - - - - - - -
25/07:00am 13.2 - - - 1015.7 - - - - - - - - -
25/06:30am 13.2 - - - 1015.7 - - - - - - - - -
25/06:00am 13.1 - - - 1016.0 - - - - - - - - -
25/05:30am 14.1 - - - 1016.3 - - - - - - - - -
25/05:00am 13.7 - - - 1016.3 - - - - - - - - -
25/04:30am 13.6 - - - 1016.6 - - - - - - - - -
25/04:00am 14.2 - - - 1016.8 - - - - - - - - -
25/03:30am 14.2 - - - 1017.2 - - - - - - - - -
25/03:00am 14.1 - - - 1018.0 - - - - - - - - -
25/02:30am 14.0 - - - 1018.1 - - - - - - - - -
25/02:00am 14.1 - - - 1018.7 - - - - - - - - -
25/01:30am 14.2 - - - 1018.5 - - - - - - - - -
25/01:00am 13.9 - - - 1019.1 - - - - - - - - -
25/12:30am 13.8 - - - 1019.5 - - - - - - - - -
25/12:00am 13.9 - - - 1020.2 - - - - - - - - -
 
Date/Time
EDT
Temp
°C
Wind Pressure Rain since
9am
mm
Weather Cloud Vis
km
Sea
Height
m
Swell
Dir  Spd
kts
Gust
kts
hPa Trend Height
m
Period
s
Dir
24/11:30pm 14.1 - - - 1020.3 - - - - - - - - -
24/11:00pm 13.9 - - - 1020.3 - - - - - - - - -
24/10:30pm 13.9 - - - 1020.5 - - - - - - - - -
24/10:00pm 14.6 - - - 1020.8 - - - - - - - - -
24/09:30pm 14.6 - - - 1020.8 - - - - - - - - -
24/09:00pm 14.6 - - - 1021.3 - - - - - - - - -
24/08:30pm 14.7 - - - 1021.1 - - - - - - - - -
24/08:00pm 14.7 - - - 1021.3 - - - - - - - - -
24/07:30pm 14.7 - - - 1021.5 - - - - - - - - -
24/07:00pm 14.8 - - - 1021.7 - - - - - - - - -
24/06:30pm 14.9 - - - 1021.3 - - - - - - - - -
24/06:00pm 15.0 - - - 1021.4 - - - - - - - - -
24/05:30pm 15.1 - - - 1021.5 - - - - - - - - -
24/05:00pm 15.2 - - - 1021.4 - - - - - - - - -
24/04:30pm 15.3 - - - 1021.8 - - - - - - - - -
24/04:00pm 15.2 - - - 1021.8 - - - - - - - - -
24/03:30pm 15.4 - - - 1022.4 - - - - - - - - -
24/03:00pm 15.5 - - - 1023.0 - - - - - - - - -
24/02:30pm 15.7 - - - 1023.2 - - - - - - - - -
24/02:00pm 15.9 - - - 1023.2 - - - - - - - - -
24/01:30pm 15.7 - - - 1023.5 - - - - - - - - -
24/01:00pm 16.5 - - - 1023.6 - - - - - - - - -
24/12:30pm 16.2 - - - 1024.1 - - - - - - - - -
24/12:00pm 16.4 - - - 1024.4 - - - - - - - - -
24/11:30am 15.5 - - - 1024.9 - - - - - - - - -
24/11:00am 15.2 - - - 1025.1 - - - - - - - - -
24/10:30am 14.3 - - - 1025.3 - - - - - - - - -
24/10:00am 13.9 - - - 1025.2 - - - - - - - - -
24/09:30am 13.5 - - - 1025.2 - - - - - - - - -
24/09:00am 12.9 - - - 1025.2 - - - - - - - - -
24/08:30am 10.7 - - - 1024.9 - - - - - - - - -
24/08:00am 9.8 - - - 1024.9 - - - - - - - - -
24/07:30am 10.3 - - - 1024.6 - - - - - - - - -
24/07:00am 10.8 - - - 1024.4 - - - - - - - - -
24/06:30am 10.2 - - - 1024.4 - - - - - - - - -
24/06:00am 11.0 - - - 1024.4 - - - - - - - - -
24/05:30am 11.6 - - - 1024.5 - - - - - - - - -

Other Formats:

Comma delimited format used in spreadsheet applications
http://www.bom.gov.au/fwo/IDT60701/IDT60701.95987.axf

JavaScript Object Notation format (JSON) in row-major order
http://www.bom.gov.au/fwo/IDT60701/IDT60701.95987.json